Voltar ao catálogo

CZ-6A DEB

AtivoPO
NORAD 60703·DEBRIS·🇨🇳 China

Lançado Aug 6, 2024 de Taiyuan Satellite Launch Center

Loading…

Próximas Passagens (próximas 24 horas)

TLE

AtualizadoSource: Space-Track

Época: Sep 14, 2026, 08:55 UTC

1 60703U 24140DG  26257.37159966  .00000187  00000-0  65771-4 0  9991
2 60703  89.4080 300.8198 0111436 143.9532 216.9244 14.27510853108765

Acompanhe CZ-6A DEB em tempo real com AllMySat

Download on the App Store